HST
1 20580U 90037B   24122.16038722  .00006986  00000-0  33391-3 0  9995
2 20580  28.4685 300.0533 0001957 245.4969 114.5419 15.17056512670141
ISS (ZARYA)
1 25544U 98067A   24122.43841905  .00013534  00000-0  23796-3 0  9991
2 25544  51.6389 187.1965 0003719 130.1892 342.4288 15.50794930451290
CXO
1 25867U 99040B   24122.90844459  .00000974  00000-0  00000-0 0  9994
2 25867  40.1204 158.4290 8930870 293.0739   0.0973  0.37809658 14390